| time (UTC) | temp C | wind direction | speed KPH | gust KPH | rain 1hr cm | rain 24hr cm | rain mn cm | humidity % | barometer mb |
| 20260509173603 | 16 | 125 | 1.6 | 6.4 | 0.00 | 0.03 | 0.03 | 67 | 1010.9 |
| 20260509172703 | 16 | 118 | 1.6 | 4.8 | 0.00 | 0.03 | 0.03 | 68 | 1011.2 |
| 20260509172020 | 16 | 121 | 1.6 | 4.8 | 0.00 | 0.03 | 0.03 | 70 | 1011.0 |
| 20260509170903 | 16 | 130 | 1.6 | 4.8 | 0.00 | 0.03 | 0.03 | 72 | 1011.5 |
| 20260509170003 | 16 | 32 | 1.6 | 4.8 | 0.00 | 0.03 | 0.03 | 73 | 1011.7 |
| 20260509165403 | 16 | 0 | 0.0 | 1.6 | 0.00 | 0.03 | 0.03 | 75 | 1011.7 |
| 20260509164503 | 16 | 0 | 0.0 | 1.6 | 0.00 | 0.03 | 0.03 | 75 | 1011.9 |
| 20260509163603 | 15 | 0 | 0.0 | 4.8 | 0.00 | 0.03 | 0.03 | 76 | 1011.7 |
| 20260509162703 | 15 | 103 | 1.6 | 3.2 | 0.00 | 0.03 | 0.03 | 77 | 1011.6 |
| 20260509162021 | 15 | 0 | 0.0 | 8.0 | 0.00 | 0.03 | 0.03 | 74 | 1011.6 |
| 20260509160903 | 15 | 0 | 0.0 | 3.2 | 0.00 | 0.03 | 0.03 | 77 | 1011.5 |
| 20260509160003 | 15 | 0 | 0.0 | 1.6 | 0.00 | 0.03 | 0.03 | 76 | 1011.7 |
| 20260509155403 | 15 | 0 | 0.0 | 1.6 | 0.00 | 0.03 | 0.03 | 78 | 1011.7 |
| 20260509154503 | 15 | 117 | 1.6 | 3.2 | 0.00 | 0.03 | 0.03 | 78 | 1011.9 |
| 20260509153603 | 15 | 118 | 1.6 | 3.2 | 0.00 | 0.03 | 0.03 | 76 | 1011.7 |
| 20260509152919 | 15 | 0 | 0.0 | 1.6 | 0.00 | 0.03 | 0.03 | 78 | 1011.7 |
| 20260509151803 | 15 | 0 | 0.0 | 1.6 | 0.00 | 0.03 | 0.03 | 80 | 1011.7 |
| 20260509150903 | 14 | 0 | 0.0 | 1.6 | 0.00 | 0.03 | 0.03 | 83 | 1011.6 |
| 20260509150003 | 14 | 0 | 0.0 | 1.6 | 0.00 | 0.03 | 0.03 | 83 | 1011.7 |
| 20260509145403 | 14 | 0 | 0.0 | 1.6 | 0.00 | 0.03 | 0.03 | 85 | 1011.6 |
| 20260509144503 | 13 | 0 | 0.0 | 1.6 | 0.00 | 0.03 | 0.03 | 87 | 1011.9 |
| 20260509143603 | 13 | 0 | 0.0 | 1.6 | 0.00 | 0.03 | 0.03 | 90 | 1011.8 |
| 20260509142703 | 13 | 0 | 0.0 | 1.6 | 0.00 | 0.03 | 0.03 | 90 | 1012.0 |
| 20260509141803 | 12 | 0 | 0.0 | 1.6 | 0.00 | 0.03 | 0.03 | 92 | 1011.9 |
| 20260509140903 | 12 | 0 | 0.0 | 1.6 | 0.00 | 0.03 | 0.03 | 92 | 1011.9 |
| 20260509140221 | 11 | 0 | 0.0 | 1.6 | 0.00 | 0.03 | 0.03 | 91 | 1012.0 |
| 20260509135618 | 11 | 0 | 0.0 | 0.0 | 0.00 | 0.03 | 0.03 | 91 | 1012.0 |
| 20260509134503 | 11 | 0 | 0.0 | 1.6 | 0.00 | 0.03 | 0.03 | 90 | 1011.9 |
| 20260509133603 | 11 | 0 | 0.0 | 1.6 | 0.00 | 0.03 | 0.03 | 91 | 1011.6 |
| 20260509132703 | 11 | 0 | 0.0 | 1.6 | 0.00 | 0.03 | 0.03 | 91 | 1011.6 |
| 20260509131803 | 11 | 0 | 0.0 | 1.6 | 0.00 | 0.03 | 0.03 | 91 | 1011.7 |
| 20260509130903 | 11 | 0 | 0.0 | 1.6 | 0.03 | 0.03 | 0.03 | 91 | 1011.8 |
| 20260509130217 | 11 | 0 | 0.0 | 1.6 | 0.03 | 0.03 | 0.03 | 91 | 1011.8 |
| 20260509125403 | 11 | 0 | 0.0 | 1.6 | 0.03 | 0.03 | 0.03 | 90 | 1011.9 |
| 20260509124503 | 10 | 0 | 0.0 | 1.6 | 0.03 | 0.03 | 0.03 | 89 | 1012.1 |
| 20260509123603 | 10 | 0 | 0.0 | 3.2 | 0.03 | 0.03 | 0.03 | 89 | 1011.8 |
| 20260509122703 | 10 | 0 | 0.0 | 3.2 | 0.03 | 0.03 | 0.03 | 87 | 1011.8 |
| 20260509121803 | 10 | 0 | 0.0 | 3.2 | 0.03 | 0.03 | 0.03 | 87 | 1011.8 |
| 20260509120903 | 10 | 0 | 0.0 | 1.6 | 0.00 | 0.00 | 0.00 | 87 | 1011.8 |
| 20260509120003 | 11 | 0 | 0.0 | 1.6 | 0.00 | 0.00 | 0.00 | 70 | 1011.9 |
| 20260509115403 | 11 | 0 | 0.0 | 1.6 | 0.00 | 0.00 | 0.00 | 70 | 1011.8 |
| 20260509114503 | 11 | 0 | 0.0 | 1.6 | 0.00 | 0.00 | 0.00 | 70 | 1011.8 |
| 20260509113603 | 11 | 0 | 0.0 | 1.6 | 0.00 | 0.00 | 0.00 | 70 | 1011.9 |
| 20260509112917 | 11 | 0 | 0.0 | 1.6 | 0.00 | 0.00 | 0.00 | 70 | 1012.1 |
| 20260509111803 | 11 | 0 | 0.0 | 1.6 | 0.00 | 0.00 | 0.00 | 70 | 1011.9 |
| 20260509110903 | 11 | 0 | 0.0 | 1.6 | 0.00 | 0.00 | 0.00 | 70 | 1011.9 |
| 20260509110003 | 11 | 0 | 0.0 | 1.6 | 0.00 | 0.00 | 0.00 | 70 | 1011.4 |
| 20260509105403 | 11 | 0 | 0.0 | 1.6 | 0.00 | 0.00 | 0.00 | 70 | 1011.4 |
| 20260509104503 | 11 | 0 | 0.0 | 1.6 | 0.00 | 0.00 | 0.00 | 70 | 1011.5 |
| 20260509103603 | 11 | 0 | 0.0 | 1.6 | 0.00 | 0.00 | 0.00 | 70 | 1011.3 |
| 20260509102703 | 11 | 0 | 0.0 | 1.6 | 0.00 | 0.00 | 0.00 | 70 | 1011.4 |
| 20260509101803 | 11 | 0 | 0.0 | 1.6 | 0.00 | 0.00 | 0.00 | 72 | 1011.5 |
| 20260509100903 | 12 | 0 | 0.0 | 1.6 | 0.00 | 0.00 | 0.00 | 70 | 1011.2 |
| 20260509100004 | 12 | 0 | 0.0 | 1.6 | 0.00 | 0.00 | 0.00 | 69 | 1010.9 |
| 20260509095621 | 12 | 0 | 0.0 | 1.6 | 0.00 | 0.00 | 0.00 | 67 | 1010.9 |
| 20260509094503 | 12 | 0 | 0.0 | 0.0 | 0.00 | 0.00 | 0.00 | 65 | 1010.9 |
| 20260509093821 | 12 | 0 | 0.0 | 0.0 | 0.00 | 0.00 | 0.00 | 63 | 1011.0 |
| 20260509092918 | 12 | 0 | 0.0 | 0.0 | 0.00 | 0.00 | 0.00 | 64 | 1011.0 |
| 20260509091803 | 12 | 0 | 0.0 | 0.0 | 0.00 | 0.00 | 0.00 | 64 | 1010.8 |
| 20260509091118 | 12 | 0 | 0.0 | 0.0 | 0.00 | 0.00 | 0.00 | 64 | 1010.9 |
| 20260509090220 | 12 | 0 | 0.0 | 0.0 | 0.00 | 0.00 | 0.00 | 63 | 1010.7 |
| 20260509085403 | 12 | 0 | 0.0 | 0.0 | 0.00 | 0.00 | 0.00 | 63 | 1010.8 |
| 20260509084503 | 12 | 0 | 0.0 | 0.0 | 0.00 | 0.00 | 0.00 | 64 | 1010.7 |
| 20260509083603 | 12 | 0 | 0.0 | 0.0 | 0.00 | 0.00 | 0.00 | 63 | 1010.9 |
| 20260509082703 | 12 | 0 | 0.0 | 0.0 | 0.00 | 0.00 | 0.00 | 64 | 1010.9 |
| 20260509081803 | 12 | 0 | 0.0 | 0.0 | 0.00 | 0.00 | 0.00 | 64 | 1010.9 |
| 20260509080903 | 12 | 0 | 0.0 | 0.0 | 0.00 | 0.00 | 0.00 | 65 | 1011.0 |
| 20260509080003 | 12 | 0 | 0.0 | 0.0 | 0.00 | 0.00 | 0.00 | 66 | 1011.0 |
| 20260509075403 | 12 | 0 | 0.0 | 0.0 | 0.00 | 0.00 | 0.00 | 67 | 1011.0 |
| 20260509074503 | 12 | 0 | 0.0 | 0.0 | 0.00 | 0.00 | 0.00 | 64 | 1011.1 |
| 20260509073603 | 12 | 0 | 0.0 | 0.0 | 0.00 | 0.00 | 0.00 | 63 | 1011.1 |
| 20260509072703 | 12 | 0 | 0.0 | 1.6 | 0.00 | 0.00 | 0.00 | 63 | 1011.0 |
| 20260509071803 | 12 | 0 | 0.0 | 1.6 | 0.00 | 0.00 | 0.00 | 64 | 1011.1 |
| 20260509071119 | 12 | 0 | 0.0 | 1.6 | 0.00 | 0.00 | 0.00 | 65 | 1011.1 |
| 20260509070003 | 12 | 236 | 1.6 | 3.2 | 0.00 | 0.00 | 0.00 | 65 | 1011.2 |
| 20260509065403 | 12 | 0 | 0.0 | 1.6 | 0.00 | 0.00 | 0.00 | 65 | 1011.3 |
| 20260509064503 | 12 | 0 | 0.0 | 1.6 | 0.00 | 0.00 | 0.00 | 65 | 1011.2 |
| 20260509063603 | 12 | 0 | 0.0 | 1.6 | 0.00 | 0.00 | 0.00 | 65 | 1011.3 |
| 20260509062920 | 12 | 235 | 1.6 | 3.2 | 0.00 | 0.00 | 0.00 | 64 | 1011.5 |
| 20260509061803 | 13 | 230 | 1.6 | 3.2 | 0.00 | 0.00 | 0.00 | 62 | 1011.5 |
| 20260509060903 | 13 | 225 | 1.6 | 3.2 | 0.00 | 0.00 | 0.00 | 62 | 1011.7 |
| 20260509060004 | 13 | 223 | 1.6 | 3.2 | 0.00 | 0.00 | 0.00 | 61 | 1011.6 |
| 20260509055403 | 13 | 226 | 1.6 | 3.2 | 0.00 | 0.00 | 0.00 | 60 | 1011.6 |
| 20260509054503 | 13 | 0 | 0.0 | 0.0 | 0.00 | 0.00 | 0.00 | 60 | 1011.6 |
| 20260509053603 | 13 | 0 | 0.0 | 0.0 | 0.00 | 0.00 | 0.00 | 60 | 1011.8 |
| 20260509052921 | 13 | 0 | 0.0 | 0.0 | 0.00 | 0.00 | 0.00 | 62 | 1011.9 |
| 20260509051803 | 13 | 0 | 0.0 | 0.0 | 0.00 | 0.00 | 0.00 | 58 | 1011.8 |
| 20260509050903 | 13 | 0 | 0.0 | 0.0 | 0.00 | 0.00 | 0.00 | 58 | 1011.9 |
| 20260509050217 | 13 | 0 | 0.0 | 0.0 | 0.00 | 0.00 | 0.00 | 60 | 1011.8 |
| 20260509045619 | 13 | 0 | 0.0 | 0.0 | 0.00 | 0.00 | 0.00 | 60 | 1011.8 |
| 20260509044721 | 13 | 0 | 0.0 | 0.0 | 0.00 | 0.00 | 0.00 | 59 | 1011.8 |
| 20260509043603 | 14 | 0 | 0.0 | 0.0 | 0.00 | 0.00 | 0.00 | 56 | 1011.9 |
| 20260509042921 | 14 | 0 | 0.0 | 1.6 | 0.00 | 0.00 | 0.00 | 54 | 1011.9 |
| 20260509042018 | 15 | 247 | 1.6 | 3.2 | 0.00 | 0.00 | 0.00 | 54 | 1011.8 |
| 20260509041121 | 15 | 268 | 1.6 | 1.6 | 0.00 | 0.00 | 0.00 | 52 | 1011.7 |
| 20260509040005 | 14 | 0 | 0.0 | 1.6 | 0.00 | 0.00 | 0.00 | 51 | 1011.7 |
| 20260509035403 | 15 | 0 | 0.0 | 1.6 | 0.00 | 0.00 | 0.00 | 51 | 1011.9 |
| 20260509034503 | 14 | 0 | 0.0 | 1.6 | 0.00 | 0.00 | 0.00 | 52 | 1012.0 |
| 20260509033603 | 14 | 0 | 0.0 | 0.0 | 0.00 | 0.00 | 0.00 | 52 | 1012.1 |
| 20260509032703 | 15 | 0 | 0.0 | 0.0 | 0.00 | 0.00 | 0.00 | 54 | 1012.5 |
| 20260509031803 | 15 | 0 | 0.0 | 1.6 | 0.00 | 0.00 | 0.00 | 51 | 1012.1 |
| 20260509030903 | 15 | 0 | 0.0 | 0.0 | 0.00 | 0.00 | 0.00 | 50 | 1012.1 |
| 20260509030003 | 15 | 0 | 0.0 | 1.6 | 0.00 | 0.00 | 0.00 | 49 | 1012.1 |
| 20260509025403 | 15 | 299 | 1.6 | 1.6 | 0.00 | 0.00 | 0.00 | 52 | 1012.3 |
| 20260509024504 | 15 | 0 | 0.0 | 1.6 | 0.00 | 0.00 | 0.00 | 49 | 1012.3 |
| 20260509023603 | 15 | 309 | 1.6 | 1.6 | 0.00 | 0.00 | 0.00 | 54 | 1012.3 |
| 20260509022703 | 15 | 0 | 0.0 | 1.6 | 0.00 | 0.00 | 0.00 | 53 | 1012.3 |
| 20260509022020 | 15 | 0 | 0.0 | 1.6 | 0.00 | 0.00 | 0.00 | 52 | 1012.3 |
| 20260509020903 | 16 | 0 | 0.0 | 3.2 | 0.00 | 0.00 | 0.00 | 51 | 1012.5 |
| 20260509020003 | 16 | 0 | 0.0 | 0.0 | 0.00 | 0.00 | 0.00 | 48 | 1012.4 |
| 20260509015403 | 16 | 0 | 0.0 | 0.0 | 0.00 | 0.00 | 0.00 | 50 | 1012.4 |
| 20260509014503 | 17 | 0 | 0.0 | 1.6 | 0.00 | 0.00 | 0.00 | 48 | 1012.3 |
| 20260509013603 | 17 | 126 | 1.6 | 3.2 | 0.00 | 0.00 | 0.00 | 45 | 1012.2 |
| 20260509012703 | 17 | 128 | 3.2 | 4.8 | 0.00 | 0.00 | 0.00 | 44 | 1012.2 |
| 20260509011803 | 17 | 125 | 4.8 | 6.4 | 0.00 | 0.00 | 0.00 | 45 | 1012.2 |
| 20260509010903 | 17 | 128 | 4.8 | 6.4 | 0.00 | 0.00 | 0.00 | 44 | 1012.2 |
| 20260509010003 | 17 | 126 | 4.8 | 6.4 | 0.00 | 0.00 | 0.00 | 45 | 1012.2 |
| 20260509005403 | 17 | 115 | 3.2 | 4.8 | 0.00 | 0.00 | 0.00 | 45 | 1012.1 |
| 20260509004503 | 17 | 107 | 3.2 | 4.8 | 0.00 | 0.00 | 0.00 | 44 | 1012.2 |
| 20260509003603 | 17 | 108 | 3.2 | 4.8 | 0.00 | 0.00 | 0.00 | 44 | 1012.1 |
| 20260509002704 | 16 | 0 | 0.0 | 3.2 | 0.00 | 0.00 | 0.00 | 46 | 1011.9 |
| 20260509001803 | 17 | 0 | 0.0 | 0.0 | 0.00 | 0.00 | 0.00 | 48 | 1011.9 |
| 20260509000903 | 17 | 0 | 0.0 | 0.0 | 0.00 | 0.00 | 0.00 | 45 | 1011.7 |
| 20260509000003 | 17 | 0 | 0.0 | 0.0 | 0.00 | 0.00 | 0.00 | 43 | 1011.7 |
| 20260508235403 | 17 | 0 | 0.0 | 0.0 | 0.00 | 0.00 | 0.00 | 44 | 1011.7 |
| 20260508234720 | 17 | 0 | 0.0 | 0.0 | 0.00 | 0.00 | 0.00 | 43 | 1011.5 |
| 20260508233603 | 18 | 0 | 0.0 | 0.0 | 0.00 | 0.00 | 0.00 | 42 | 1011.6 |
| 20260508232703 | 18 | 0 | 0.0 | 1.6 | 0.00 | 0.00 | 0.00 | 42 | 1011.6 |
| 20260508231803 | 18 | 0 | 0.0 | 3.2 | 0.00 | 0.00 | 0.00 | 42 | 1011.5 |
| 20260508230004 | 18 | 0 | 0.0 | 1.6 | 0.00 | 0.00 | 0.00 | 41 | 1011.5 |
| 20260508225403 | 18 | 0 | 0.0 | 0.0 | 0.00 | 0.00 | 0.00 | 41 | 1011.4 |
| 20260508224503 | 18 | 0 | 0.0 | 1.6 | 0.00 | 0.00 | 0.00 | 41 | 1011.5 |
| 20260508223603 | 19 | 0 | 0.0 | 3.2 | 0.00 | 0.00 | 0.00 | 40 | 1011.5 |
| 20260508222920 | 19 | 0 | 0.0 | 1.6 | 0.00 | 0.00 | 0.00 | 40 | 1011.5 |
| 20260508221803 | 19 | 0 | 0.0 | 4.8 | 0.00 | 0.00 | 0.00 | 39 | 1011.6 |
| 20260508220903 | 19 | 0 | 0.0 | 3.2 | 0.00 | 0.00 | 0.00 | 40 | 1011.6 |
| 20260508220217 | 19 | 0 | 0.0 | 3.2 | 0.00 | 0.00 | 0.00 | 39 | 1011.7 |
| 20260508215403 | 20 | 0 | 0.0 | 4.8 | 0.00 | 0.00 | 0.00 | 38 | 1011.6 |
| 20260508214503 | 20 | 111 | 1.6 | 4.8 | 0.00 | 0.00 | 0.00 | 39 | 1011.6 |
| 20260508213603 | 19 | 354 | 1.6 | 4.8 | 0.00 | 0.00 | 0.00 | 38 | 1011.7 |
| 20260508212703 | 19 | 60 | 1.6 | 4.8 | 0.00 | 0.00 | 0.00 | 38 | 1011.8 |
| 20260508211803 | 19 | 0 | 0.0 | 4.8 | 0.00 | 0.00 | 0.00 | 39 | 1011.9 |
| 20260508211120 | 19 | 0 | 0.0 | 3.2 | 0.00 | 0.00 | 0.00 | 39 | 1011.9 |
| 20260508210003 | 20 | 38 | 1.6 | 3.2 | 0.00 | 0.00 | 0.00 | 38 | 1012.1 |
| 20260508205403 | 20 | 0 | 0.0 | 3.2 | 0.00 | 0.00 | 0.00 | 36 | 1012.0 |
| 20260508204503 | 20 | 0 | 0.0 | 3.2 | 0.00 | 0.00 | 0.00 | 36 | 1012.0 |
| 20260508203819 | 20 | 323 | 1.6 | 4.8 | 0.00 | 0.00 | 0.00 | 37 | 1012.2 |
| 20260508202703 | 19 | 340 | 1.6 | 6.4 | 0.00 | 0.00 | 0.00 | 36 | 1012.2 |
| 20260508201803 | 19 | 0 | 0.0 | 3.2 | 0.00 | 0.00 | 0.00 | 37 | 1012.3 |
| 20260508200903 | 19 | 107 | 1.6 | 6.4 | 0.00 | 0.00 | 0.00 | 35 | 1012.3 |
| 20260508200003 | 20 | 275 | 1.6 | 6.4 | 0.00 | 0.00 | 0.00 | 33 | 1012.4 |
| 20260508195403 | 20 | 271 | 1.6 | 6.4 | 0.00 | 0.00 | 0.00 | 32 | 1012.5 |
| 20260508194503 | 21 | 273 | 1.6 | 6.4 | 0.00 | 0.00 | 0.00 | 32 | 1012.5 |
| 20260508193603 | 21 | 272 | 3.2 | 9.7 | 0.00 | 0.00 | 0.00 | 31 | 1012.6 |
| 20260508192703 | 22 | 284 | 1.6 | 8.0 | 0.00 | 0.00 | 0.00 | 30 | 1012.5 |
| 20260508191803 | 21 | 276 | 3.2 | 8.0 | 0.00 | 0.00 | 0.00 | 32 | 1012.5 |
| 20260508190903 | 20 | 256 | 1.6 | 6.4 | 0.00 | 0.00 | 0.00 | 34 | 1012.8 |
| 20260508190003 | 20 | 258 | 3.2 | 6.4 | 0.00 | 0.00 | 0.00 | 35 | 1013.0 |
| 20260508185403 | 20 | 279 | 1.6 | 6.4 | 0.00 | 0.00 | 0.00 | 35 | 1013.1 |
| 20260508184503 | 20 | 239 | 1.6 | 6.4 | 0.00 | 0.00 | 0.00 | 33 | 1013.2 |
| 20260508183603 | 20 | 301 | 3.2 | 8.0 | 0.00 | 0.00 | 0.00 | 31 | 1013.3 |
| 20260508182703 | 21 | 265 | 1.6 | 9.7 | 0.00 | 0.00 | 0.00 | 30 | 1013.2 |
| 20260508181803 | 21 | 250 | 3.2 | 9.7 | 0.00 | 0.00 | 0.00 | 31 | 1013.5 |
| 20260508180903 | 21 | 223 | 3.2 | 9.7 | 0.00 | 0.00 | 0.00 | 32 | 1013.2 |
| 20260508180003 | 21 | 235 | 3.2 | 8.0 | 0.00 | 0.00 | 0.00 | 31 | 1013.5 |
| 20260508175403 | 21 | 240 | 3.2 | 8.0 | 0.00 | 0.00 | 0.00 | 29 | 1013.5 |
| 20260508174503 | 20 | 241 | 3.2 | 9.7 | 0.00 | 0.00 | 0.00 | 32 | 1013.7 |